[[{"header":{"parameterUnit":"m.s-1","parameterCategory":1,"la1":30.2991,"la2":30.254,"lo1":-89.0895,"lo2":-89.0444,"dy":0.0017,"dx":0.0017,"nx":28,"ny":28,"refTime":"2024-06-26T03:00:00:Z","depth":0,"parameterNumber":2,"parameterNumberName":"U-component_of_WINDS"},"data":[0,0,0,0,0,0,0,0,0,0,0,0,0,0,0,0,0,0,0,0,0,0,0,0,0,0,0,0,0,0,0,0,0,0,0,0,0,0,0,0,0,0,0,0,0,0,0,0,0,0,0,0,0,0,0,0,0,0,3.5695,3.5697,0,3.5859,3.5861,3.5863,3.5891,3.589,3.5888,3.5887,3.6059,3.6064,3.607,0,0,0,0,0,0,0,0,0,0,0,0,0,3.541,3.5415,3.5695,3.5697,3.5699,3.5859,3.5861,3.5863,3.5891,3.589,3.5888,3.5886,3.6057,3.6064,3.6071,0,0,0,0,0,0,0,0,0,0,0,0,0,3.555,3.5417,3.5694,3.5732,3.5737,3.5858,3.5861,3.5864,3.5892,3.589,3.5887,3.5885,3.6055,3.6063,3.6072,3.6168,0,0,3.6099,3.6103,0,0,0,0,0,0,0,0,3.5542,3.5561,3.5724,3.573,3.5735,3.5852,3.5824,3.5966,3.5892,3.5833,3.5887,3.5884,3.5992,3.6006,3.6041,3.6176,3.6184,3.6099,3.6105,3.6109,3.6111,0,0,0,0,0,0,0,3.5532,3.5554,3.576,3.5727,3.5734,3.5742,3.576,3.5851,3.5922,3.5838,3.584,3.5859,3.5995,3.6033,3.6046,3.6186,3.6099,3.6107,3.6113,3.6116,3.641,3.6412,0,0,0,0,0,0,3.5515,3.5545,3.5755,3.5765,3.5632,3.5749,3.5769,3.5817,3.5921,3.5935,3.5861,3.586,3.6019,3.6035,3.6052,3.6171,3.6109,3.6117,3.6122,3.6407,3.641,3.6413,0,0,0,0,0,0,3.5509,3.5534,3.5748,3.5656,3.5684,3.5756,3.581,3.5821,3.5859,3.5939,3.5952,3.5886,3.6018,3.6039,3.6139,3.6178,3.6121,3.6129,3.6404,3.6408,3.6412,3.6411,0,0,0,0,0,0,3.5501,3.5531,3.5567,3.5656,3.5689,3.5831,3.5813,3.5826,3.5874,3.5874,3.5966,3.5979,3.6018,3.6126,3.6148,3.6189,3.6136,3.6401,3.6406,3.641,3.6408,3.6415,3.642,0,0,0,0,0,3.5491,3.5561,3.5569,3.5594,3.5735,3.5833,3.5852,3.5893,3.5877,3.5915,3.5966,3.5976,3.617,3.6136,3.6161,3.6205,3.6399,3.6405,3.641,3.6405,3.6413,3.642,0,0,0,0,0,0,3.5475,3.5573,3.5583,3.5684,3.575,3.5837,3.5886,3.59,3.5973,3.597,3.602,3.6041,3.6138,3.6182,3.6141,3.6305,3.6284,3.6295,3.6271,3.628,3.6285,3.6272,3.6143,0,0,0,0,0,3.5484,3.5554,3.5637,3.5718,3.5751,3.5813,3.5857,3.5884,3.5954,3.5982,3.6041,3.611,3.6187,3.6236,3.6311,3.6416,3.6436,3.6459,3.6465,3.6469,3.6478,3.6537,3.6548,3.6432,3.6432,3.6431,0,0,3.5502,3.5564,3.5605,3.5717,3.5771,3.5843,3.5836,3.5913,3.5968,3.5995,3.6091,3.6137,3.6218,3.632,3.6369,3.636,3.6515,3.6477,3.6479,3.6486,3.6544,3.6555,3.6564,3.6435,3.6435,3.6434,0,0,3.5571,3.5626,3.5699,3.5754,3.5836,3.5877,3.5895,3.5981,3.6012,3.611,3.6132,3.6199,3.633,3.6387,3.6433,3.6526,3.6539,3.655,3.658,3.6637,3.6646,3.6655,3.6688,3.6699,3.6558,3.6558,3.6558,0,3.5583,3.5692,3.5736,3.5812,3.5861,3.5889,3.5964,3.6016,3.6118,3.6152,3.6141,3.6307,3.6363,3.6479,3.6502,3.6539,3.6562,3.6538,3.6641,3.665,3.6659,3.6691,3.6703,3.6559,3.6559,3.6559,3.6559,0,3.5703,3.5779,3.5829,3.5926,3.5982,3.6057,3.6114,3.6165,3.6187,3.623,3.6331,3.64,3.6489,3.652,3.6543,3.664,3.6632,3.6631,3.6611,3.667,3.67,3.6713,3.656,3.656,3.656,3.6559,0,0,3.5765,3.5887,3.5904,3.5949,3.6043,3.6103,3.6181,3.6268,3.631,3.6381,3.6448,3.656,3.6559,3.6612,3.6642,3.6693,3.6762,3.6686,3.6688,3.6696,3.6873,3.6872,3.6885,3.6772,3.6775,3.6777,3.6866,0,3.5844,3.5983,3.6025,3.6142,3.6213,3.6242,3.631,3.6376,3.6419,3.6487,3.6535,3.6612,3.6607,3.6638,3.669,3.6743,3.6798,3.6737,3.6835,3.6838,3.6812,3.6902,3.6901,3.6981,3.6879,3.6881,3.6882,0,3.5955,3.6027,3.615,3.6235,3.6267,3.6327,3.6411,3.6475,3.6551,3.6579,3.6638,3.6665,3.675,3.6726,3.6844,3.6801,3.6845,3.6877,3.6882,3.6891,3.6862,3.6912,3.7008,3.702,3.6902,3.69,3.6899,0,3.5986,3.6114,3.6205,3.6242,3.6345,3.6387,3.6432,3.6505,3.6555,3.6629,3.6662,3.6746,3.6791,3.6856,3.6905,3.6884,3.7019,3.6999,3.7044,3.7043,3.707,3.7067,3.7172,3.71,3.71,3.71,3.71,0,3.6069,3.6143,3.622,3.6275,3.636,3.641,3.6492,3.6539,3.6605,3.6671,3.6702,3.6764,3.6826,3.6896,3.6936,3.7027,3.7048,3.7073,3.7083,3.707,3.7066,3.7097,3.7092,3.7103,3.7103,3.7102,3.7101,0,3.6117,3.6171,3.6272,3.6361,3.6385,3.6444,3.6521,3.6576,3.6622,3.6705,3.6728,3.6799,3.6883,3.6939,3.7048,3.7075,3.7174,3.7183,3.7147,3.7151,3.7193,3.7188,3.7321,3.7341,3.7256,3.7257,3.7258,0,3.6165,3.6223,3.6319,3.6365,3.641,3.6484,3.6535,3.6587,3.6639,3.6731,3.6776,3.6863,3.6934,3.7069,3.7131,3.7215,3.7225,3.7266,3.7237,3.7223,3.7224,3.7219,3.7225,3.7269,3.727,3.7271,3.7271,0,3.6245,3.627,3.6342,3.6424,3.6484,3.6551,3.6619,3.6655,3.672,3.6777,3.6863,3.6919,3.703,3.7116,3.7205,3.7253,3.7273,3.728,3.7295,3.7281,3.7257,3.7269,3.7158,3.7276,3.7276,3.7275,3.7275,3.7275,3.6294,3.6347,3.6423,3.6502,3.6559,3.6622,3.6678,3.6731,3.6803,3.6897,3.6924,3.7014,3.7091,3.7213,3.7263,3.7335,3.7331,3.7353,3.7358,3.7362,3.7361,3.7247,3.7352,3.7352,3.7352,3.7352,3.7352,0,3.6375,3.6425,3.6498,3.6591,3.6655,3.6668,3.6744,3.6796,3.6875,3.6944,3.7014,3.7114,3.7198,3.7268,3.7355,3.7399,3.7411,3.742,3.7416,3.7427,3.7361,3.7339,3.7409,3.7409,3.7409,3.7409,3.7409,3.7409,3.6424,3.6514,3.6547,3.6666,3.6717,3.6805,3.6847,3.6906,3.6961,3.7071,3.7141,3.7185,3.7256,3.7348,3.7426,3.7445,3.7475,3.7482,3.7502,3.7438,3.7432,3.7426,3.7405,3.7489,3.7489,3.7563,3.7563,3.7564]},{"header":{"parameterUnit":"m.s-1","parameterCategory":1,"la1":30.2991,"la2":30.254,"lo1":-89.0895,"lo2":-89.0444,"dy":0.0017,"dx":0.0017,"nx":28,"ny":28,"refTime":"2024-06-26T03:00:00:Z","depth":0,"parameterNumber":3,"parameterNumberName":"V-component_of_WINDS"},"data":[0,0,0,0,0,0,0,0,0,0,0,0,0,0,0,0,0,0,0,0,0,0,0,0,0,0,0,0,0,0,0,0,0,0,0,0,0,0,0,0,0,0,0,0,0,0,0,0,0,0,0,0,0,0,0,0,0,0,4.0616,4.0617,0,4.073,4.0732,4.0733,4.0763,4.0763,4.0762,4.0761,4.0872,4.0876,4.0879,0,0,0,0,0,0,0,0,0,0,0,0,0,4.0415,4.0418,4.0616,4.0617,4.0618,4.073,4.0732,4.0733,4.0763,4.0763,4.0762,4.0761,4.0871,4.0875,4.088,0,0,0,0,0,0,0,0,0,0,0,0,0,4.0513,4.0419,4.0615,4.0647,4.0651,4.073,4.0732,4.0734,4.0764,4.0763,4.0762,4.0761,4.087,4.0875,4.088,4.0934,0,0,4.0897,4.0899,0,0,0,0,0,0,0,0,4.0507,4.052,4.0641,4.0645,4.065,4.0732,4.0702,4.0801,4.0764,4.0721,4.0761,4.076,4.0826,4.0835,4.0858,4.0939,4.0944,4.0897,4.09,4.0903,4.0904,0,0,0,0,0,0,0,4.05,4.0515,4.0661,4.0643,4.0648,4.0653,4.0666,4.0721,4.0777,4.0724,4.0727,4.074,4.0828,4.0853,4.0861,4.0945,4.0897,4.0902,4.0905,4.0907,4.1072,4.1073,0,0,0,0,0,0,4.0489,4.0509,4.0657,4.0664,4.0575,4.0657,4.0672,4.0706,4.0777,4.0787,4.0741,4.0741,4.0844,4.0855,4.0865,4.0931,4.0903,4.0908,4.0911,4.1071,4.1073,4.1074,0,0,0,0,0,0,4.0485,4.0502,4.0653,4.0588,4.0607,4.0662,4.07,4.0709,4.0734,4.079,4.0799,4.0757,4.0844,4.0858,4.0916,4.0935,4.091,4.0915,4.107,4.1072,4.1073,4.1063,0,0,0,0,0,0,4.0479,4.05,4.0523,4.0588,4.0611,4.0704,4.0702,4.0712,4.0744,4.0746,4.0807,4.0816,4.0844,4.0908,4.0922,4.0942,4.0919,4.1068,4.1071,4.1073,4.1062,4.1064,4.1066,0,0,0,0,0,4.0471,4.0515,4.0524,4.0542,4.0641,4.0705,4.0718,4.0751,4.0746,4.0768,4.0803,4.0814,4.0931,4.0914,4.0929,4.0952,4.1067,4.107,4.1073,4.1061,4.1064,4.1066,0,0,0,0,0,0,4.0449,4.0524,4.0535,4.0601,4.0647,4.071,4.0739,4.0754,4.08,4.0799,4.0837,4.085,4.0906,4.0935,4.0914,4.1006,4.0999,4.1005,4.0985,4.0988,4.099,4.0981,4.0924,0,0,0,0,0,4.0452,4.05,4.0562,4.0615,4.0637,4.0684,4.0713,4.0735,4.0783,4.0802,4.0842,4.0885,4.0932,4.0962,4.1008,4.1066,4.1079,4.1089,4.1091,4.1093,4.1097,4.1127,4.1132,4.1082,4.1082,4.1082,0,0,4.0458,4.0505,4.0533,4.0611,4.0649,4.0696,4.07,4.075,4.0784,4.0809,4.0867,4.0897,4.0948,4.1007,4.1034,4.1032,4.1113,4.1096,4.1097,4.11,4.113,4.1135,4.1139,4.1084,4.1084,4.1084,0,0,4.0493,4.0535,4.0582,4.062,4.0677,4.0708,4.0719,4.0781,4.0802,4.0861,4.088,4.092,4.1,4.1035,4.1063,4.1109,4.112,4.1123,4.1134,4.1163,4.1167,4.1171,4.1185,4.119,4.1127,4.1127,4.1127,0,4.0493,4.0566,4.0603,4.0652,4.0685,4.0711,4.0757,4.0791,4.086,4.0881,4.0878,4.0978,4.1014,4.108,4.1091,4.1114,4.1125,4.1116,4.1164,4.1168,4.1172,4.1186,4.1191,4.1127,4.1127,4.1127,4.1127,0,4.0562,4.0612,4.0643,4.0711,4.0747,4.0794,4.0835,4.0867,4.0885,4.0915,4.0973,4.1017,4.1072,4.1089,4.1107,4.1157,4.1154,4.1157,4.1151,4.1176,4.1189,4.1195,4.1127,4.1127,4.1127,4.1127,0,0,4.0586,4.0673,4.0684,4.0714,4.0779,4.0817,4.0864,4.0919,4.0944,4.099,4.1028,4.1094,4.1098,4.113,4.1151,4.1177,4.1208,4.1177,4.1179,4.118,4.1263,4.1259,4.1265,4.1216,4.1217,4.1218,4.1258,0,4.0628,4.0715,4.0749,4.0819,4.0865,4.0889,4.093,4.0972,4.1001,4.1041,4.1072,4.1118,4.112,4.1139,4.1166,4.1199,4.1225,4.1196,4.1249,4.1251,4.1235,4.1272,4.1269,4.1304,4.1264,4.1265,4.1265,0,4.0689,4.0737,4.0812,4.0869,4.0889,4.0926,4.0978,4.1017,4.1064,4.1083,4.1118,4.1138,4.1185,4.1176,4.124,4.122,4.1243,4.1262,4.1264,4.1269,4.1259,4.1277,4.1317,4.1321,4.1274,4.1274,4.1273,0,4.0696,4.078,4.0835,4.086,4.0929,4.0953,4.0983,4.103,4.106,4.1104,4.1124,4.1172,4.1198,4.1234,4.1265,4.1257,4.1325,4.132,4.134,4.1339,4.1352,4.1351,4.1395,4.1369,4.1369,4.1369,4.1369,0,4.0738,4.0783,4.0839,4.0873,4.0922,4.0959,4.1006,4.1037,4.1078,4.1116,4.114,4.1174,4.1214,4.1253,4.1277,4.1325,4.1336,4.1351,4.1357,4.1348,4.1346,4.1364,4.1361,4.1371,4.137,4.137,4.137,0,4.0755,4.0795,4.0857,4.0917,4.0933,4.0967,4.1017,4.1049,4.1079,4.1126,4.1139,4.1185,4.1232,4.1267,4.1327,4.1343,4.1393,4.14,4.1378,4.138,4.1398,4.1395,4.1454,4.1462,4.1432,4.1432,4.1432,0,4.0779,4.0814,4.0878,4.0907,4.0936,4.0981,4.1013,4.1049,4.108,4.1136,4.1161,4.121,4.1251,4.1323,4.136,4.1406,4.1412,4.143,4.1419,4.1409,4.1411,4.1408,4.141,4.1431,4.1431,4.1431,4.1431,0,4.0816,4.0834,4.088,4.0931,4.0968,4.101,4.1052,4.1073,4.1117,4.115,4.1199,4.1231,4.1293,4.134,4.1389,4.1416,4.143,4.1434,4.1441,4.1432,4.1418,4.1424,4.138,4.1433,4.1432,4.1432,4.1432,4.1432,4.0836,4.0868,4.0918,4.0967,4.1003,4.1041,4.1074,4.1108,4.1151,4.1205,4.1223,4.1273,4.1317,4.1385,4.1412,4.145,4.145,4.146,4.1462,4.1464,4.1462,4.1412,4.1459,4.1459,4.1459,4.1459,4.1459,0,4.0873,4.0907,4.0952,4.1011,4.1048,4.1061,4.1107,4.1137,4.1182,4.1223,4.1263,4.1318,4.1363,4.1403,4.145,4.1472,4.1479,4.1483,4.1481,4.1486,4.1461,4.145,4.1476,4.1476,4.1476,4.1476,4.1476,4.1476,4.0897,4.0951,4.0974,4.1044,4.1076,4.1127,4.1153,4.1187,4.122,4.1281,4.132,4.1346,4.1386,4.1435,4.1477,4.1487,4.1502,4.1504,4.1515,4.149,4.1488,4.1486,4.1476,4.1507,4.1507,4.1537,4.1538,4.1538]}]]